This demonstration page uses our WeatherBlox Daily Observations layout. Learn more.

Hourly Observations for January 19, 2020

Temp ( °F °C ) Dew Point ( °F °C ) Humidity (%) Winds ( mph kmh ) Pressure ( in mb ) Visibility ( mi km ) Precip ( " mm )
12:15 am 00:15 Clear 21 -6.3 17 -8.3 86 86 NNW 3 6 30.56 1035 10 16.0934 0 0
12:35 am 00:35 Clear 21 -6 18 -8 86 86 NNW 6 9 30.56 1035 10 16.0934 0 0
12:55 am 00:55 Clear 22 -5.8 18 -7.8 86 86 N 6 9 30.55 1035 10 16.0934 0 0
1:15 am 01:15 Clear 22 -5.6 17 -8.2 82 82 NW 3 6 30.56 1035 10 16.0934 0 0
1:35 am 01:35 Clear 19 -7.2 16 -9 87 87 WNW 5 7 30.58 1035 10 16.0934 0 0
1:55 am 01:55 Clear 19 -7.2 16 -9 87 87 W 6 9 30.58 1035 10 16.0934 0 0
2:15 am 02:15 Clear 19 -7.1 16 -9.1 86 86 W 6 9 30.59 1036 10 16.0934 0 0
2:35 am 02:35 Clear 19 -7.1 16 -9 86 86 W 6 9 30.59 1036 10 16.0934 0 0
2:55 am 02:55 Clear 20 -6.7 16 -9 84 84 WNW 6 9 30.59 1036 10 16.0934 0 0
3:15 am 03:15 Clear 18 -7.8 14 -9.8 86 86 WNW 6 9 30.6 1036 10 16.0934 0 0
3:35 am 03:35 Clear 19 -7.3 14 -9.8 83 83 NW 5 7 30.61 1037 10 16.0934 0 0
3:55 am 03:55 Clear 18 -7.8 13 -10.3 82 82 NW 5 7 30.61 1037 10 16.0934 0 0
4:15 am 04:15 Clear 18 -8 13 -10.3 84 84 NW 6 9 30.62 1037 10 16.0934 0 0
4:35 am 04:35 Clear 18 -7.9 14 -10.2 84 84 NNW 6 9 30.62 1037 10 16.0934 0 0
4:55 am 04:55 Clear 20 -6.7 14 -10 78 78 N 5 7 30.61 1037 10 16.0934 0 0
5:15 am 05:15 Clear 16 -9 12 -11.2 84 84 N 6 9 30.64 1037 10 16.0934 0 0
5:35 am 05:35 Clear 16 -9.1 11 -11.4 84 84 N 5 7 30.65 1038 10 16.0934 0 0
5:55 am 05:55 Clear 15 -9.5 11 -11.5 86 86 N 5 7 30.65 1038 10 16.0934 0 0
6:15 am 06:15 Clear 15 -9.5 11 -11.5 86 86 N 5 7 30.66 1038 10 16.0934 0 0
6:35 am 06:35 Clear 15 -9.6 11 -11.5 86 86 NNE 5 7 30.66 1038 10 16.0934 0 0
6:55 am 06:55 Clear 14 -10 11 -11.9 86 86 Calm 30.68 1039 10 16.0934 0 0
7:15 am 07:15 Clear 13 -10.4 10 -12.2 87 87 NNE 3 6 30.69 1039 10 16.0934 0 0
7:35 am 07:35 Clear 14 -10.2 10 -12.5 83 83 NNE 7 11 30.69 1039 10 16.0934 0 0
7:55 am 07:55 Clear 14 -9.8 9 -12.6 80 80 N 6 9 30.7 1039 10 16.0934 0 0
8:15 am 08:15 Sunny 14 -10 9 -12.9 80 80 N 6 9 30.7 1040 10 16.0934 0 0
8:35 am 08:35 Sunny 14 -9.9 9 -12.6 81 81 N 5 7 30.71 1040 10 16.0934 0 0
8:55 am 08:55 Sunny 16 -9.1 10 -12.1 79 79 N 5 7 30.71 1040 10 16.0934 0 0
9:15 am 09:15 Sunny 16 -8.7 11 -11.9 78 78 NE 8 13 30.71 1040 10 16.0934 0 0
9:35 am 09:35 Sunny 17 -8.6 10 -12.3 75 75 N 5 7 30.71 1040 10 16.0934 0 0
9:55 am 09:55 Sunny 17 -8.2 11 -11.8 76 76 NE 5 7 30.71 1040 10 16.0934 0 0
10:15 am 10:15 Sunny 18 -7.9 11 -11.5 76 76 NE 3 6 30.72 1040 10 16.0934 0 0
10:35 am 10:35 Sunny 19 -7.2 12 -11 75 75 N 3 6 30.72 1040 10 16.0934 0 0
10:55 am 10:55 Sunny 19 -7.5 11 -11.7 72 72 Calm 30.73 1041 10 16.0934 0 0
11:15 am 11:15 Sunny 19 -7 11 -11.5 71 71 Calm 30.75 1041 10 16.0934 0 0
11:35 am 11:35 Sunny 20 -6.6 12 -11.2 70 70 Calm 30.74 1041 10 16.0934 0 0
11:55 am 11:55 Sunny 21 -6.3 11 -11.4 67 67 N 6 9 30.73 1041 10 16.0934 0 0
12:15 pm 12:15 Sunny 21 -6 13 -10.8 69 69 N 3 6 30.72 1040 10 16.0934 0 0
12:35 pm 12:35 Sunny 22 -5.8 13 -10.5 70 70 N 5 7 30.71 1040 10 16.0934 0 0
12:55 pm 12:55 Sunny 22 -5.5 13 -10.7 67 67 NW 3 6 30.7 1040 10 16.0934 0 0
1:15 pm 13:15 Sunny 23 -5.1 14 -9.8 70 70 Calm 30.7 1040 10 16.0934 0 0
1:35 pm 13:35 Sunny 23 -4.8 15 -9.5 70 70 Calm 30.67 1039 10 16.0934 0 0
1:55 pm 13:55 Sunny 24 -4.7 15 -9.3 71 71 Calm 30.66 1038 10 16.0934 0 0
2:15 pm 14:15 Sunny 23 -4.8 15 -9.2 72 72 Calm 30.65 1038 10 16.0934 0 0
2:35 pm 14:35 Sunny 24 -4.2 17 -8.5 72 72 SE 3 6 30.63 1037 10 16.0934 0 0
2:55 pm 14:55 Sunny 25 -4.1 17 -8.6 71 71 Calm 30.63 1037 10 16.0934 0 0
3:15 pm 15:15 Sunny 24 -4.2 17 -8.3 73 73 Calm 30.63 1037 10 16.0934 0 0
3:35 pm 15:35 Sunny 26 -3.6 18 -7.9 72 72 ESE 3 6 30.61 1037 10 16.0934 0 0
3:55 pm 15:55 Sunny 26 -3.6 18 -7.6 74 74 Calm 30.61 1037 10 16.0934 0 0
4:15 pm 16:15 Sunny 26 -3.5 19 -7.4 75 75 SE 5 7 30.61 1037 10 16.0934 0 0
4:35 pm 16:35 Sunny 26 -3.2 19 -7.1 75 75 SSE 5 7 30.61 1036 10 16.0934 0 0
4:55 pm 16:55 Sunny 26 -3.5 19 -7.1 76 76 SSE 3 6 30.61 1037 10 16.0934 0 0
5:15 pm 17:15 Sunny 26 -3.5 20 -6.7 79 79 SSE 5 7 30.6 1036 10 16.0934 0 0
5:35 pm 17:35 Sunny 25 -4 20 -6.5 83 83 SE 3 6 30.61 1036 10 16.0934 0 0
5:55 pm 17:55 Clear 23 -5 19 -7 86 86 SE 5 7 30.62 1037 10 16.0934 0 0
6:15 pm 18:15 Clear 23 -5 20 -6.7 88 88 S 6 9 30.62 1037 10 16.0934 0 0
6:35 pm 18:35 Clear 23 -5.2 19 -7.2 86 86 SE 3 6 30.63 1037 10 16.0934 0 0
6:55 pm 18:55 Clear 21 -6.2 18 -7.6 90 90 ESE 7 11 30.65 1038 10 16.0934 0 0
7:15 pm 19:15 Clear 20 -6.6 17 -8.2 89 89 ESE 8 13 30.65 1038 10 16.0934 0 0
7:35 pm 19:35 Clear 20 -6.6 17 -8.2 89 89 SE 8 13 30.65 1038 10 16.0934 0 0
7:55 pm 19:55 Clear 19 -7.1 16 -8.7 89 89 SE 6 9 30.67 1039 10 16.0934 0 0
8:15 pm 20:15 Clear 18 -7.6 15 -9.2 88 88 SE 7 11 30.67 1039 10 16.0934 0 0
8:35 pm 20:35 Clear 18 -7.9 15 -9.5 88 88 SE 5 7 30.68 1039 10 16.0934 0 0
8:55 pm 20:55 Clear 18 -8 14 -9.9 86 86 Calm 30.68 1039 10 16.0934 0 0
9:15 pm 21:15 Clear 17 -8.1 14 -10 86 86 SSE 5 7 30.68 1039 10 16.0934 0 0
9:35 pm 21:35 Clear 17 -8.3 14 -10.1 87 87 SSE 5 7 30.68 1039 10 16.0934 0 0
9:55 pm 21:55 Clear 15 -9.2 13 -10.7 89 89 ESE 6 9 30.69 1039 10 16.0934 0 0
10:15 pm 22:15 Clear 16 -9.1 13 -10.6 89 89 SE 6 9 30.69 1039 10 16.0934 0 0
10:35 pm 22:35 Clear 15 -9.3 13 -10.8 89 89 SSE 6 9 30.68 1039 10 16.0934 0 0
10:55 pm 22:55 Clear 15 -9.3 13 -10.8 89 89 S 5 7 30.67 1039 10 16.0934 0 0
11:15 pm 23:15 Clear 15 -9.4 12 -11 88 88 SE 3 6 30.69 1039 10 16.0934 0 0
11:35 pm 23:35 Clear 15 -9.7 12 -11.2 89 89 SE 5 7 30.68 1039 10 16.0934 0 0
11:55 pm 23:55 Clear 14 -10.1 11 -11.6 89 89 SE 7 11 30.69 1039 10 16.0934 0 0

Powered by AerisWeather